Miscellaneous Local Product
Issued by NWS Hastings, NE

Home | Current Version | Previous Version | Graphics & Text | Print | Product List | Glossary On
Versions: 1 2 3 4 5 6 7 8 9 10 11 12 13 14 15 16 17 18 19 20 21 22 23 24 25 26 27 28 29 30 31 32 33 34 35 36 37 38 39 40 41 42 43 44 45 46 47 48 49 50
000
AXUS43 KGID 061002
MISGRI

GID CWA HOURLY WEATHER ROUNDUP
NATIONAL WEATHER SERVICE HASTINGS NE
500 AM CDT FRI MAY 06 2016

NOTE: "FAIR" INDICATES FEW OR NO CLOUDS BELOW 12,000 FEET WITH NO
SIGNIFICANT WEATHER AND/OR OBSTRUCTIONS TO VISIBILITY.

...SOUTH CENTRAL NEBRASKA...

CITY           SKY/WX    TMP DP  RH WIND       PRES   REMARKS
GRAND ISLAND   CLEAR     60  41  49 S13       30.00S
HASTINGS       CLEAR     56  42  59 S7        30.01S
KEARNEY        CLEAR     54  43  66 S9        30.01S
ORD            CLOUDY    54  45  71 CALM      29.97S
YORK           CLEAR     54  43  66 SW9       30.01S
AURORA         CLEAR     55  43  63 SW10      30.00F
HOLDREGE       CLEAR     55  43  63 S9        30.01F
HEBRON         CLEAR     51  43  75 CALM      30.03S

...NEBRASKA PANHANDLE...

CITY           SKY/WX    TMP DP  RH WIND       PRES   REMARKS
CHADRON        PTCLDY    54  45  71 CALM      29.88F
ALLIANCE       CLOUDY    48  44  86 SE10      29.94F
SCOTTSBLUFF    CLOUDY    61  43  51 CALM      29.93F
SIDNEY         CLOUDY    54  44  69 SW10      29.97F

...WESTERN AND NORTH CENTRAL NEBRASKA...

CITY           SKY/WX    TMP DP  RH WIND       PRES   REMARKS
VALENTINE      CLEAR     63  47  55 SW18G26   29.90F
AINSWORTH      CLEAR     60  46  61 S15       29.93F
ONEILL         CLEAR     59  47  63 S9        29.95S
BROKEN BOW     LGT RAIN  58  45  62 S9        29.99S
IMPERIAL       PTCLDY    57  46  66 SE9       29.97F
NORTH PLATTE   PTCLDY    56  46  69 SE6       29.97F
MCCOOK         CLOUDY    57  45  64 S12       29.99F

...EASTERN NEBRASKA...

CITY           SKY/WX    TMP DP  RH WIND       PRES   REMARKS
NORFOLK        CLEAR     57  42  57 SW9       29.96S
SO SIOUX CITY  CLEAR     50  44  80 E7        29.96S
TEKAMAH        CLEAR     50  44  80 SE8       29.97S
COLUMBUS       CLEAR     55  39  54 SW6       30.00R
ALBION         CLEAR     55  42  60 CALM      29.99S
OMAHA EPPLEY   CLEAR     53  44  71 SE9       29.99S
OFFUTT AFB     CLEAR     48  46  93 E2        29.99S
MILLARD        CLEAR     50  46  84 CALM      29.99S
LINCOLN        CLEAR     56  43  61 S5        30.01F
NEBRASKA CITY  CLEAR     54  42  64 SW9       30.01S
BEATRICE       CLEAR     50  44  78 CALM      30.02F
FALLS CITY     CLEAR     51  44  77 SE5       30.02S

...NORTHERN KANSAS...

CITY           SKY/WX    TMP DP  RH WIND       PRES   REMARKS
GOODLAND       CLOUDY    50  45  83 S13       29.99F
HILL CITY      CLOUDY    58  44  60 S6        30.02F
NORTON         SUNNY     55  39  54 S6        30.00
PHILLIPSBURG   CLEAR     50  45  81 CALM      30.02F
SMITH CENTER   CLEAR     48  43  81 E5        30.03S
BELOIT         CLEAR     45  41  87 CALM      30.02F
HAYS           CLOUDY    54  39  58 S5        30.03F
RUSSELL        CLOUDY    53  45  74 SW9       30.02F
CONCORDIA      CLEAR     58  41  53 S13       30.02F
SALINA         CLEAR     50  44  80 CALM      30.04S
TOPEKA         CLEAR     49  46  90 CALM      30.05S



USA.gov is the U.S. government's official web portal to all federal, state and local government web resources and services.